Orbital Elements at Epoch 2459000.5 (2020-May-31.0) TDB
Reference: JPL 19 (heliocentric ecliptic J2000)
Element | Value | Uncertainty (1-sigma) | Units |
e | .1099374495964412 | 4.5577e-08 | |
a | 3.063093106864456 | 2.4912e-08 | au |
q | 2.726344462819339 | 1.4245e-07 | au |
i | 13.63507677759274 | 4.7387e-06 | deg |
node | 59.47153411996281 | 2.2202e-05 | deg |
peri | 48.66304810293465 | 4.1948e-05 | deg |
M | 37.34842365675238 | 3.0769e-05 | deg |
tp | 2458797.353895118633 (2019-Nov-09.85389512) | 0.00016776 | TDB |
period | 1958.11738748096 5.36 | 2.3888e-05 6.54e-08 | d yr |
n | .1838500604211097 | 2.2429e-09 | deg/d |
Q | 3.399841750909574 | 2.7651e-08 | au |
|
| | Orbit Determination Parameters
Additional Information
|